Regional Weather Roundup
Issued by NWS

Home | Current Version | Previous Version | Graphics & Text | Print | Product List | Glossary On
Versions: 1 2 3 4 5 6 7 8 9 10 11 12 13 14 15 16 17 18 19 20 21 22 23 24 25 26 27 28 29 30 31 32 33 34 35 36 37 38 39 40 41 42 43 44 45 46 47 48 49 50
000
ASUS45 KABQ 031410
RWRNM
NEW MEXICO REGIONAL WEATHER ROUNDUP
NATIONAL WEATHER SERVICE ALBUQUERQUE NM
800 AM MDT THU SEP 03 2015

NOTE: "FAIR" MEANS FEW OR NO CLOUDS BELOW 12,000 FEET AGL WITH NO
       SIGNIFICANT WEATHER OR OBSTRUCTIONS TO VISION.

      THIS PRODUCT IS RELEASED AS TWO VERSIONS.  ONE VERSION NEAR
      THE TOP OF THE HOUR CONTAINING PRELIMINARY DATA FROM ALBUQUERQUE
      AND OTHER STATIONS.  A FINAL VERSION WITH ADDITIONAL DATA IS
      ISSUED ABOUT 10 MINUTES AFTER THE HOUR.

NMZ501-503-504-510>518-031500-
NORTHWEST PLATEAU/NORTHCENTRAL MOUNTAINS

CITY           SKY/WX    TMP DP  RH WIND       PRES   REMARKS
FARMINGTON     CLOUDY    64  50  60 CALM      30.17R
LOS ALAMOS     CLOUDY    58  47  65 CALM      30.28R
SANTA FE       CLOUDY    59  47  64 CALM      30.22R
TAOS           CLOUDY    54  37  54 CALM      30.29R
ANGEL FIRE     FAIR      49  46  89 CALM      30.34R

$$
NMZ402-403-502-505>509-031500-
WESTCENTRAL MOUNTAINS/SOUTHWEST MOUNTAINS

CITY           SKY/WX    TMP DP  RH WIND       PRES   REMARKS
GALLUP         MOSUNNY   54  47  77 CALM      30.25R
GRANTS         PTSUNNY   54  53  99 CALM      30.28R
SILVER CITY      N/A     64  54  68 NW8       30.19R

$$
NMZ407-409-411-412-031500-
SOUTHERN DESERTS

CITY           SKY/WX    TMP DP  RH WIND       PRES   REMARKS
LORDSBURG      FAIR      64  59  82 W7        30.11R
DEMING         PTSUNNY   68  59  73 S7        30.12R
LAS CRUCES     CLOUDY    69  55  59 CALM      30.12S
HOLLOMAN AFB   PTSUNNY   72  53  51 N3        30.07R
ALAMOGORDO     PTSUNNY   73  50  43 N3        30.10R
T OR C         CLOUDY    67  54  63 NW6       30.14R

$$
NMZ519>523-031500-
CENTRAL VALLEYS/CENTRAL HIGHLANDS

CITY           SKY/WX    TMP DP  RH WIND       PRES   REMARKS
ALBUQUERQUE    PTSUNNY   65  48  54 SE7       30.19R
DOUBLE EAGLE   PTSUNNY   59  50  72 CALM      30.22R
MORIARTY ARPT  FAIR      56  48  74 CALM      30.24R
CLINES CORNERS PTSUNNY   59  47  64 NW10      30.25R
BELEN          FAIR      63  54  73 CALM      30.18R
SOCORRO        FAIR      65  56  74 CALM      30.16R

$$
NMZ524>526-539-540-031500-
SOUTHCENTRAL MOUNTAINS

CITY           SKY/WX    TMP DP  RH WIND       PRES   REMARKS
RUIDOSO        PTSUNNY   63  46  55 W5        30.29R

$$
NMZ527>531-031500-
NORTHEAST HIGHLANDS/NORTHEAST PLAINS

CITY           SKY/WX    TMP DP  RH WIND       PRES   REMARKS
LAS VEGAS      PTSUNNY   59  47  64 SW5       30.21R
RATON          CLOUDY    58  53  84 NW3       30.14R
CLAYTON        MOSUNNY   69  53  56 W7        30.05R

$$
NMZ532>537-031500-
EASTCENTRAL PLAINS

CITY           SKY/WX    TMP DP  RH WIND       PRES   REMARKS
TUCUMCARI      MOSUNNY   70  50  49 SW8       30.03R
CANNON AFB     SUNNY     72  54  54 SW9       30.08R
CLOVIS AIRPORT SUNNY     73  54  49 SW12      30.09R

$$
NMZ028-029-538-031500-
SOUTHEAST PLAINS

CITY           SKY/WX    TMP DP  RH WIND       PRES   REMARKS
ROSWELL        PTSUNNY   73  54  51 N3        30.05R
ARTESIA        MOSUNNY   73  55  53 N6        30.05R
CARLSBAD       SUNNY     75  53  46 CALM      30.02R
HOBBS          SUNNY     73  57  56 SE12      30.06R


$$


USA.gov is the U.S. government's official web portal to all federal, state and local government web resources and services.